Location: Medlow Airstrip Trail, Medlow Bath NSW 2780, Australia
(33.6682°S, 150.3233°E)
Time: 15:05:42
(UTC+11:00)

Explorer 11/Cluster Stage 4 - Pass Details

Date: 27 September 2019
Orbit: 467 x 1259 km, 28.8° (Epoch: 22 October)

Event Time Altitude Azimuth Distance (km) Brightness Sun altitude
Rises 08:40:45 0° 286° (WNW) 2,719 9.0 35.3°
Reaches altitude 10° 08:42:53 10° 292° (WNW) 1,911 8.3 35.7°
Maximum altitude 08:47:08 47° 6° (N) 892 7.8 36.5°
Drops below altitude 10° 08:52:25 10° 79° (ENE) 2,368 10.2 37.5°
Sets 08:55:19 0° 84° (E) 3,450 10.7 38.0°
